This is the latest recevied weather packets stored in our database for station/object CE3MXM-13. If no packets are shown the sender has not sent any weather packets the latest 1 day(s).
| Time | Temp. | Humidity | Pressure | Rain* | Wind** | Luminosity | Snow |
|---|---|---|---|---|---|---|---|
| 1778030416 | 12.22° C | 85% | 1011.6 hPa | - | - | - | - |
| 1778030116 | 12.22° C | 84% | 1011.5 hPa | - | - | - | - |
| 1778029816 | 12.78° C | 84% | 1011.5 hPa | - | - | - | - |
| 1778029516 | 12.78° C | 84% | 1011.6 hPa | - | - | - | - |
| 1778028915 | 12.78° C | 83% | 1011.7 hPa | - | - | - | - |
| 1778028615 | 12.78° C | 83% | 1011.8 hPa | - | - | - | - |
| 1778028315 | 13.33° C | 82% | 1012 hPa | - | - | - | - |
| 1778028015 | 13.33° C | 81% | 1011.7 hPa | - | - | - | - |
| 1778027715 | 13.33° C | 80% | 1011.8 hPa | - | - | - | - |
| 1778027415 | 13.33° C | 80% | 1011.6 hPa | - | - | - | - |
| 1778026815 | 13.89° C | 78% | 1011.7 hPa | - | - | - | - |
| 1778026215 | 14.44° C | 77% | 1011.3 hPa | - | - | - | - |
| 1778025014 | 13.89° C | 78% | 1011 hPa | - | - | - | - |
| 1778024414 | 14.44° C | 77% | 1011.1 hPa | - | - | - | - |
| 1778023814 | 14.44° C | 77% | 1010.9 hPa | - | - | - | - |
| 1778023214 | 14.44° C | 76% | 1010.8 hPa | - | - | - | - |
| 1778020513 | 15.56° C | 73% | 1010.4 hPa | - | - | - | - |
| 1778019913 | 15.56° C | 73% | 1010.5 hPa | - | - | - | - |
| 1778018712 | 16.11° C | 72% | 1009.7 hPa | - | - | - | - |
| 1778018412 | 16.67° C | 71% | 1009.6 hPa | - | - | - | - |
| 1778018112 | 16.67° C | 71% | 1009.6 hPa | - | - | - | - |
| 1778017512 | 16.67° C | 70% | 1009.4 hPa | - | - | - | - |
| 1778016011 | 18.33° C | 67% | 1009.1 hPa | - | - | - | - |
| 1778015411 | 18.89° C | 65% | 1009.1 hPa | - | - | - | - |
| 1778014811 | 19.44° C | 63% | 1009 hPa | - | - | - | - |
* Rain since midnight (hover to see other rain measurements)
** Current wind speed in m/s (hover to see current wind gust speed)